When you browse on this site, cookies collect data to enhance your experience and personalize the content and advertising you see.
Visit our Privacy Policy to learn more. By continuing to use the site, you agree to this use of cookies and data.
  • In Lithuania
  • List of Countries
  • For 7 days
  • Water Temperature
  • Weather Map
  • Weather Widgets
  • user-avatar
    Login

    Hourly Weather Jaunde

    Today, 23 August, Friday

    Time Temperature Precipitation Wind Pressure Humidity
    00:00 +22°C° 0.7 mm 1 mps 700 mmHg 97%
    01:00 +22°C° 0.7 mm 1 mps 700 mmHg 98%
    02:00 +22°C° 0.3 mm 1 mps 699 mmHg 98%
    03:00 +22°C° 0.3 mm 1 mps 699 mmHg 98%
    04:00 +22°C° 0.3 mm 1 mps 698 mmHg 98%
    05:00 +22°C° 0.5 mm 1 mps 699 mmHg 98%
    06:00 +20°C° 0.5 mm 0 mps 699 mmHg 98%
    07:00 +20°C° 0.5 mm 0 mps 700 mmHg 98%
    08:00 +22°C° 0.7 mm 1 mps 700 mmHg 96%
    09:00 +23°C° 0.7 mm 1 mps 700 mmHg 95%
    10:00 +23°C° 0.7 mm 1 mps 700 mmHg 93%
    11:00 +24°C° 0.8 mm 1 mps 700 mmHg 93%
    12:00 +24°C° 0.8 mm 1 mps 700 mmHg 93%
    13:00 +24°C° 0.8 mm 1 mps 699 mmHg 93%
    14:00 +24°C° 0.1 mm 2 mps 699 mmHg 91%
    15:00 +24°C° 0.1 mm 2 mps 698 mmHg 89%
    16:00 +24°C° 0.1 mm 2 mps 697 mmHg 87%
    17:00 +23°C° 0 mm 2 mps 698 mmHg 89%
    18:00 +23°C° 0 mm 2 mps 698 mmHg 91%
    19:00 +21°C° 0 mm 2 mps 699 mmHg 93%
    20:00 +21°C° 0 mm 2 mps 699 mmHg 93%
    21:00 +21°C° 0 mm 2 mps 700 mmHg 93%
    22:00 +21°C° 0 mm 2 mps 700 mmHg 93%
    23:00 +21°C° 0.1 mm 2 mps 700 mmHg 93%

    Tomorrow, 24 August, Saturday

    Time Temperature Precipitation Wind Pressure Humidity
    00:00 +21°C° 0.1 mm 2 mps 700 mmHg 94%
    01:00 +21°C° 0.1 mm 2 mps 700 mmHg 95%
    02:00 +21°C° 0.5 mm 2 mps 699 mmHg 95%
    03:00 +20°C° 0.5 mm 2 mps 699 mmHg 96%
    04:00 +20°C° 0.5 mm 2 mps 699 mmHg 96%
    05:00 +20°C° 0.1 mm 2 mps 699 mmHg 96%
    06:00 +21°C° 0.1 mm 1 mps 699 mmHg 97%
    07:00 +21°C° 0.1 mm 1 mps 700 mmHg 97%
    08:00 +21°C° 0.1 mm 1 mps 700 mmHg 95%
    09:00 +22°C° 0.1 mm 1 mps 700 mmHg 93%
    10:00 +21°C° 0.1 mm 2 mps 701 mmHg 91%
    11:00 +23°C° 0 mm 2 mps 700 mmHg 88%
    12:00 +23°C° 0 mm 2 mps 700 mmHg 84%
    13:00 +24°C° 0 mm 2 mps 700 mmHg 81%
    14:00 +24°C° 0 mm 2 mps 699 mmHg 80%
    15:00 +24°C° 0 mm 2 mps 699 mmHg 79%
    16:00 +24°C° 0 mm 2 mps 698 mmHg 79%
    17:00 +23°C° 0 mm 2 mps 698 mmHg 83%
    18:00 +21°C° 0 mm 2 mps 699 mmHg 87%
    19:00 +21°C° 0 mm 1 mps 699 mmHg 91%
    20:00 +21°C° 0 mm 1 mps 700 mmHg 92%
    21:00 +21°C° 0 mm 1 mps 700 mmHg 92%
    22:00 +21°C° 0 mm 1 mps 700 mmHg 92%
    23:00 +20°C° 0 mm 2 mps 700 mmHg 93%

    Day after tomorrow, 25 August, Sunday

    Time Temperature Precipitation Wind Pressure Humidity
    00:00 +20°C° 0 mm 2 mps 700 mmHg 93%
    01:00 +20°C° 0 mm 2 mps 699 mmHg 93%
    02:00 +21°C° 0 mm 1 mps 699 mmHg 94%
    03:00 +20°C° 0 mm 1 mps 699 mmHg 95%
    04:00 +20°C° 0 mm 1 mps 698 mmHg 96%
    05:00 +20°C° 0 mm 1 mps 699 mmHg 95%
    06:00 +20°C° 0 mm 1 mps 699 mmHg 95%
    07:00 +20°C° 0 mm 1 mps 700 mmHg 94%
    08:00 +21°C° 0 mm 1 mps 700 mmHg 89%
    09:00 +23°C° 0 mm 1 mps 701 mmHg 84%
    10:00 +24°C° 0 mm 1 mps 701 mmHg 79%
    11:00 +24°C° 0 mm 1 mps 701 mmHg 80%
    12:00 +24°C° 0 mm 1 mps 700 mmHg 80%
    13:00 +24°C° 0 mm 1 mps 699 mmHg 80%
    14:00 +24°C° 0.1 mm 1 mps 699 mmHg 79%
    15:00 +24°C° 0.1 mm 1 mps 698 mmHg 77%
    16:00 +25°C° 0.1 mm 2 mps 698 mmHg 76%
    17:00 +24°C° 0.2 mm 1 mps 698 mmHg 82%
    18:00 +22°C° 0.2 mm 1 mps 698 mmHg 89%
    19:00 +21°C° 0.2 mm 1 mps 699 mmHg 95%
    20:00 +19°C° 0 mm 0 mps 699 mmHg 95%
    21:00 +19°C° 0 mm 0 mps 699 mmHg 96%
    22:00 +19°C° 0 mm 0 mps 700 mmHg 96%
    23:00 +19°C° 0 mm 0 mps 699 mmHg 96%

    26 August, Monday

    Time Temperature Precipitation Wind Pressure Humidity
    00:00 +19°C° 0 mm 0 mps 699 mmHg 96%
    01:00 +21°C° 0 mm 1 mps 699 mmHg 96%
    02:00 +19°C° 0 mm 0 mps 699 mmHg 96%
    03:00 +19°C° 0 mm 0 mps 699 mmHg 97%
    04:00 +19°C° 0 mm 0 mps 698 mmHg 97%
    05:00 +19°C° 0.1 mm 0 mps 699 mmHg 97%
    06:00 +19°C° 0.1 mm 0 mps 699 mmHg 97%
    07:00 +19°C° 0.1 mm 0 mps 700 mmHg 96%
    08:00 +19°C° 0 mm 0 mps 700 mmHg 94%
    09:00 +20°C° 0 mm 0 mps 701 mmHg 92%
    10:00 +21°C° 0 mm 0 mps 701 mmHg 90%
    11:00 +21°C° 0.1 mm 0 mps 701 mmHg 90%
    12:00 +21°C° 0.1 mm 0 mps 700 mmHg 91%
    13:00 +21°C° 0.1 mm 0 mps 699 mmHg 91%
    14:00 +21°C° 0.2 mm 0 mps 699 mmHg 90%
    15:00 +21°C° 0.2 mm 0 mps 699 mmHg 89%
    16:00 +21°C° 0.2 mm 0 mps 699 mmHg 88%
    17:00 +21°C° 0 mm 0 mps 699 mmHg 91%
    18:00 +20°C° 0 mm 0 mps 699 mmHg 94%
    19:00 +19°C° 0 mm 0 mps 699 mmHg 97%
    20:00 +19°C° 0 mm 0 mps 699 mmHg 97%
    21:00 +18°C° 0 mm 0 mps 699 mmHg 97%
    22:00 +18°C° 0 mm 0 mps 700 mmHg 98%
    23:00 +18°C° 0 mm 0 mps 699 mmHg 98%

    27 August, Tuesday

    Time Temperature Precipitation Wind Pressure Humidity
    00:00 +18°C° 0 mm 0 mps 699 mmHg 98%
    01:00 +17°C° 0 mm 0 mps 699 mmHg 98%
    02:00 +17°C° 0 mm 0 mps 699 mmHg 98%
    03:00 +18°C° 0 mm 0 mps 699 mmHg 98%
    04:00 +18°C° 0 mm 0 mps 699 mmHg 98%
    05:00 +18°C° 0 mm 0 mps 699 mmHg 98%
    06:00 +19°C° 0 mm 0 mps 699 mmHg 97%
    07:00 +19°C° 0 mm 0 mps 700 mmHg 97%
    08:00 +20°C° 0 mm 0 mps 700 mmHg 93%
    09:00 +20°C° 0 mm 0 mps 701 mmHg 90%
    10:00 +21°C° 0 mm 0 mps 701 mmHg 87%
    11:00 +24°C° 0.1 mm 1 mps 701 mmHg 83%
    12:00 +25°C° 0.1 mm 1 mps 700 mmHg 79%
    13:00 +26°C° 0.1 mm 1 mps 699 mmHg 75%
    14:00 +26°C° 0.4 mm 1 mps 699 mmHg 74%
    15:00 +27°C° 0.4 mm 1 mps 698 mmHg 74%
    16:00 +27°C° 0.4 mm 1 mps 698 mmHg 73%
    17:00 +25°C° 0.9 mm 1 mps 698 mmHg 81%
    18:00 +24°C° 0.9 mm 1 mps 698 mmHg 89%
    19:00 +22°C° 0.9 mm 1 mps 698 mmHg 96%
    20:00 +22°C° 0.3 mm 1 mps 699 mmHg 97%
    21:00 +21°C° 0.3 mm 1 mps 699 mmHg 98%
    22:00 +21°C° 0.3 mm 1 mps 700 mmHg 98%
    23:00 +21°C° 0 mm 1 mps 700 mmHg 98%

    28 August, Wednesday

    Time Temperature Precipitation Wind Pressure Humidity
    00:00 +21°C° 0 mm 1 mps 699 mmHg 98%
    01:00 +21°C° 0 mm 1 mps 699 mmHg 98%
    02:00 +21°C° 0 mm 1 mps 699 mmHg 98%
    03:00 +21°C° 0 mm 1 mps 699 mmHg 98%
    04:00 +21°C° 0 mm 1 mps 699 mmHg 97%
    05:00 +21°C° 0 mm 1 mps 699 mmHg 97%
    06:00 +21°C° 0 mm 1 mps 699 mmHg 97%
    07:00 +19°C° 0 mm 0 mps 700 mmHg 97%
    08:00 +22°C° 0 mm 1 mps 700 mmHg 93%
    09:00 +23°C° 0 mm 1 mps 700 mmHg 88%
    10:00 +24°C° 0 mm 1 mps 701 mmHg 83%
    11:00 +25°C° 0 mm 1 mps 700 mmHg 78%
    12:00 +26°C° 0 mm 2 mps 699 mmHg 72%
    13:00 +27°C° 0 mm 2 mps 699 mmHg 66%
    14:00 +28°C° 0 mm 2 mps 698 mmHg 65%
    15:00 +28°C° 0 mm 2 mps 698 mmHg 64%
    16:00 +28°C° 0 mm 2 mps 697 mmHg 63%
    17:00 +26°C° 0.3 mm 2 mps 697 mmHg 73%
    18:00 +25°C° 0.3 mm 1 mps 698 mmHg 82%
    19:00 +23°C° 0.3 mm 1 mps 698 mmHg 92%
    20:00 +21°C° 2.1 mm 2 mps 698 mmHg 94%
    21:00 +21°C° 2.1 mm 2 mps 699 mmHg 95%
    22:00 +21°C° 2.1 mm 2 mps 700 mmHg 97%
    23:00 +21°C° 0.2 mm 2 mps 699 mmHg 97%
    Show more